TimePDT,TemperatureF,Dew PointF,Humidity,Sea Level PressureIn,VisibilityMPH,Wind Direction,Wind SpeedMPH,Gust SpeedMPH,PrecipitationIn,Events,Conditions,WindDirDegrees,DateUTC
12:53 AM,54.0,51.1,90,29.98,10.0,Calm,Calm,-,N/A,,Overcast,0,2013-08-05 07:53:00
1:53 AM,53.1,51.1,93,29.98,10.0,Calm,Calm,-,N/A,,Overcast,0,2013-08-05 08:53:00
2:37 AM,53.6,51.8,94,29.99,10.0,Calm,Calm,-,N/A,,Overcast,0,2013-08-05 09:37:00
2:53 AM,53.1,51.1,93,29.98,10.0,Calm,Calm,-,N/A,,Overcast,0,2013-08-05 09:53:00
3:53 AM,53.1,51.1,93,29.98,10.0,Calm,Calm,-,N/A,,Overcast,0,2013-08-05 10:53:00
4:53 AM,52.0,51.1,97,29.98,7.0,West,3.5,-,N/A,,Overcast,270,2013-08-05 11:53:00
5:53 AM,52.0,50.0,93,29.98,9.0,Calm,Calm,-,N/A,,Overcast,0,2013-08-05 12:53:00
6:53 AM,52.0,50.0,93,29.99,2.0,Calm,Calm,-,N/A,,Overcast,0,2013-08-05 13:53:00
7:53 AM,52.0,50.0,93,30.00,2.0,Calm,Calm,-,N/A,,Overcast,0,2013-08-05 14:53:00
8:53 AM,52.0,50.0,93,30.01,2.0,Calm,Calm,-,N/A,,Overcast,0,2013-08-05 15:53:00
9:53 AM,54.0,50.0,86,30.01,3.0,Calm,Calm,-,N/A,,Overcast,0,2013-08-05 16:53:00
10:53 AM,57.9,50.0,75,30.01,10.0,Variable,4.6,-,N/A,,Mostly Cloudy,0,2013-08-05 17:53:00
11:30 AM,60.8,51.8,72,30.02,10.0,SSW,3.5,-,N/A,,Scattered Clouds,210,2013-08-05 18:30:00
11:53 AM,64.0,52.0,65,30.00,10.0,Calm,Calm,-,N/A,,Partly Cloudy,0,2013-08-05 18:53:00
12:53 PM,69.1,54.0,58,29.98,10.0,South,8.1,-,N/A,,Clear,180,2013-08-05 19:53:00
1:53 PM,72.0,54.0,53,29.97,6.0,South,8.1,-,N/A,,Haze,180,2013-08-05 20:53:00
2:53 PM,70.0,53.1,55,29.96,6.0,South,10.4,-,N/A,,Haze,180,2013-08-05 21:53:00
3:53 PM,72.0,53.1,51,29.94,6.0,South,12.7,-,N/A,,Haze,190,2013-08-05 22:53:00
4:53 PM,71.1,52.0,51,29.92,10.0,South,11.5,-,N/A,,Haze,190,2013-08-05 23:53:00
5:53 PM,68.0,52.0,56,29.92,10.0,South,11.5,-,N/A,,Haze,170,2013-08-06 00:53:00
6:53 PM,63.0,52.0,67,29.92,10.0,South,10.4,-,N/A,,Haze,170,2013-08-06 01:53:00
7:53 PM,57.0,50.0,77,29.93,10.0,SSE,11.5,-,N/A,,Haze,160,2013-08-06 02:53:00
8:53 PM,53.1,48.9,86,29.95,10.0,SSE,8.1,-,N/A,,Clear,150,2013-08-06 03:53:00
9:12 PM,53.6,50.0,88,29.97,10.0,SSE,8.1,-,N/A,,Scattered Clouds,150,2013-08-06 04:12:00
9:21 PM,53.6,50.0,88,29.98,10.0,SSE,6.9,-,N/A,,Mostly Cloudy,150,2013-08-06 04:21:00
9:53 PM,53.1,50.0,89,29.96,10.0,SSE,6.9,-,N/A,,Overcast,150,2013-08-06 04:53:00
10:53 PM,53.1,50.0,89,29.97,10.0,SE,3.5,-,N/A,,Overcast,140,2013-08-06 05:53:00
11:53 PM,53.1,50.0,89,29.97,10.0,Calm,Calm,-,N/A,,Overcast,0,2013-08-06 06:53:00